レナード彗星

C/2023 A1 ( Leonard )

English version
Home page
Updated on October 14, 2023

---------------------------------------------------------------------

・ プロフィール

発見日 2023年1月9日
発見光度 18.9等
発見者 G. J. Leonard (Mt. Lemmon Survey)

・ 写真集

・ 軌道要素

Epoch 2023 Feb. 25.0 TT = JDT 2460000.5
T 2023 Mar. 18.72608 TT                                 Rudenko
q   1.8347239            (2000.0)            P               Q
z  +0.0043612      Peri.  159.24936     -0.71777660     -0.21313544
 +/-0.0000019      Node   318.30787     +0.41013491     +0.63988695
e   0.9919983      Incl.   94.74322     +0.56265985     -0.73832105
>From 451 observations 2022 Dec. 15-2023 May 16, mean residual 0".5.

・ 星図

・ 光度変化

        m1 = 9.0 + 5 logΔ + 25.0 log r(t - 20)

---------------------------------------------------------------------

軌道要素はM.P.E.C. 2023-K136に掲載されたものです。
星図はステラナビゲータ Ver.10 (アストロアーツ) で作成したものです。
光度グラフはComet for Windowsで作成したものです。

---------------------------------------------------------------------

Copyright(C) Seiichi Yoshida (comet@aerith.net). All rights reserved.